When you browse on this site, cookies collect data to enhance your experience and personalize the content and advertising you see.
Visit our Privacy Policy to learn more. By continuing to use the site, you agree to this use of cookies and data.
  • en France
  • Liste des pays
  • À 7 jours
  • Température de l'eau
  • Carte satellitaire
  • Carte météo
  • Widgets météo
  • user-avatar
    Se connecter

    Météo par heure à Sucre

    Ce jour, 23 Mars, Samedi

    Heure Température Précipitation Vent Pression Humidité
    00:00 +13°C° 0 mm 2 m/s 542 mmHg 83%
    01:00 +13°C° 0 mm 2 m/s 542 mmHg 83%
    02:00 +13°C° 0 mm 1 m/s 542 mmHg 82%
    03:00 +13°C° 0 mm 1 m/s 542 mmHg 83%
    04:00 +12°C° 0 mm 1 m/s 542 mmHg 83%
    05:00 +12°C° 0 mm 1 m/s 542 mmHg 84%
    06:00 +12°C° 0 mm 1 m/s 542 mmHg 82%
    07:00 +13°C° 0 mm 1 m/s 542 mmHg 80%
    08:00 +13°C° 0 mm 1 m/s 543 mmHg 79%
    09:00 +14°C° 0 mm 2 m/s 543 mmHg 72%
    10:00 +16°C° 0 mm 2 m/s 544 mmHg 66%
    11:00 +17°C° 0 mm 2 m/s 544 mmHg 60%
    12:00 +18°C° 0 mm 3 m/s 544 mmHg 54%
    13:00 +19°C° 0 mm 3 m/s 544 mmHg 49%
    14:00 +20°C° 0 mm 3 m/s 544 mmHg 44%
    15:00 +20°C° 0 mm 4 m/s 544 mmHg 44%
    16:00 +20°C° 0 mm 4 m/s 543 mmHg 45%
    17:00 +20°C° 0 mm 4 m/s 543 mmHg 45%
    18:00 +18°C° 0 mm 3 m/s 543 mmHg 52%
    19:00 +17°C° 0 mm 3 m/s 542 mmHg 58%
    20:00 +16°C° 0 mm 2 m/s 542 mmHg 65%
    21:00 +15°C° 0 mm 2 m/s 542 mmHg 69%
    22:00 +14°C° 0 mm 2 m/s 542 mmHg 74%
    23:00 +14°C° 0 mm 2 m/s 542 mmHg 78%

    Demain, 24 Mars, Dimanche

    Heure Température Précipitation Vent Pression Humidité
    00:00 +13°C° 0 mm 2 m/s 542 mmHg 80%
    01:00 +13°C° 0 mm 1 m/s 542 mmHg 82%
    02:00 +13°C° 0 mm 1 m/s 542 mmHg 84%
    03:00 +12°C° 0 mm 1 m/s 541 mmHg 85%
    04:00 +12°C° 0 mm 1 m/s 541 mmHg 85%
    05:00 +12°C° 0 mm 1 m/s 541 mmHg 86%
    06:00 +12°C° 0 mm 1 m/s 541 mmHg 84%
    07:00 +12°C° 0 mm 1 m/s 541 mmHg 83%
    08:00 +13°C° 0 mm 1 m/s 542 mmHg 81%
    09:00 +14°C° 0.1 mm 1 m/s 542 mmHg 76%
    10:00 +15°C° 0.1 mm 2 m/s 543 mmHg 71%
    11:00 +16°C° 0.1 mm 2 m/s 543 mmHg 66%
    12:00 +17°C° 0 mm 3 m/s 543 mmHg 63%
    13:00 +18°C° 0 mm 3 m/s 543 mmHg 60%
    14:00 +19°C° 0 mm 3 m/s 543 mmHg 57%
    15:00 +18°C° 0.3 mm 3 m/s 542 mmHg 60%
    16:00 +17°C° 0.3 mm 3 m/s 542 mmHg 62%
    17:00 +17°C° 0.3 mm 3 m/s 541 mmHg 65%
    18:00 +16°C° 0.2 mm 3 m/s 542 mmHg 69%
    19:00 +15°C° 0.2 mm 2 m/s 542 mmHg 72%
    20:00 +14°C° 0.2 mm 2 m/s 542 mmHg 76%
    21:00 +14°C° 0.4 mm 2 m/s 542 mmHg 78%
    22:00 +14°C° 0.4 mm 2 m/s 543 mmHg 79%
    23:00 +13°C° 0.4 mm 2 m/s 543 mmHg 81%

    Après-demain, 25 Mars, Lundi

    Heure Température Précipitation Vent Pression Humidité
    00:00 +13°C° 0.6 mm 1 m/s 542 mmHg 82%
    01:00 +13°C° 0.6 mm 1 m/s 542 mmHg 84%
    02:00 +12°C° 0.6 mm 1 m/s 542 mmHg 85%
    03:00 +12°C° 0.2 mm 1 m/s 542 mmHg 84%
    04:00 +12°C° 0.2 mm 1 m/s 541 mmHg 84%
    05:00 +12°C° 0.2 mm 1 m/s 541 mmHg 84%
    06:00 +12°C° 0.2 mm 1 m/s 541 mmHg 83%
    07:00 +12°C° 0.2 mm 1 m/s 542 mmHg 82%
    08:00 +13°C° 0.2 mm 1 m/s 542 mmHg 81%
    09:00 +14°C° 0.2 mm 1 m/s 543 mmHg 76%
    10:00 +15°C° 0.2 mm 2 m/s 543 mmHg 71%
    11:00 +15°C° 0.2 mm 2 m/s 544 mmHg 67%
    12:00 +16°C° 0.2 mm 2 m/s 543 mmHg 62%
    13:00 +17°C° 0.2 mm 3 m/s 543 mmHg 58%
    14:00 +18°C° 0.2 mm 3 m/s 543 mmHg 54%
    15:00 +18°C° 0.1 mm 3 m/s 542 mmHg 55%
    16:00 +18°C° 0.1 mm 3 m/s 542 mmHg 56%
    17:00 +18°C° 0.1 mm 4 m/s 541 mmHg 57%
    18:00 +17°C° 0.5 mm 3 m/s 541 mmHg 64%
    19:00 +15°C° 0.5 mm 2 m/s 541 mmHg 70%
    20:00 +14°C° 0.5 mm 2 m/s 541 mmHg 77%
    21:00 +14°C° 0.6 mm 1 m/s 542 mmHg 79%
    22:00 +13°C° 0.6 mm 1 m/s 542 mmHg 81%
    23:00 +13°C° 0.6 mm 1 m/s 542 mmHg 83%

    26 Mars, Mardi

    Heure Température Précipitation Vent Pression Humidité
    00:00 +13°C° 0.2 mm 1 m/s 542 mmHg 84%
    01:00 +13°C° 0.2 mm 1 m/s 542 mmHg 84%
    02:00 +13°C° 0.2 mm 1 m/s 541 mmHg 85%
    03:00 +13°C° 0.1 mm 1 m/s 541 mmHg 86%
    04:00 +12°C° 0.1 mm 1 m/s 541 mmHg 87%
    05:00 +12°C° 0.1 mm 1 m/s 541 mmHg 88%
    06:00 +12°C° 0.4 mm 1 m/s 541 mmHg 87%
    07:00 +12°C° 0.4 mm 1 m/s 542 mmHg 87%
    08:00 +12°C° 0.4 mm 1 m/s 542 mmHg 86%
    09:00 +13°C° 0.7 mm 1 m/s 542 mmHg 84%
    10:00 +13°C° 0.7 mm 2 m/s 543 mmHg 83%
    11:00 +13°C° 0.7 mm 2 m/s 543 mmHg 81%
    12:00 +14°C° 0.5 mm 2 m/s 543 mmHg 77%
    13:00 +14°C° 0.5 mm 2 m/s 543 mmHg 74%
    14:00 +15°C° 0.5 mm 2 m/s 543 mmHg 70%
    15:00 +15°C° 0.7 mm 2 m/s 542 mmHg 73%
    16:00 +14°C° 0.7 mm 2 m/s 542 mmHg 76%
    17:00 +14°C° 0.7 mm 2 m/s 541 mmHg 78%
    18:00 +13°C° 0.8 mm 2 m/s 542 mmHg 81%
    19:00 +13°C° 0.8 mm 2 m/s 542 mmHg 84%
    20:00 +12°C° 0.8 mm 2 m/s 542 mmHg 87%
    21:00 +12°C° 0.8 mm 2 m/s 542 mmHg 88%
    22:00 +12°C° 0.8 mm 2 m/s 542 mmHg 88%
    23:00 +12°C° 0.8 mm 2 m/s 543 mmHg 89%

    27 Mars, Mercredi

    Heure Température Précipitation Vent Pression Humidité
    00:00 +12°C° 0.8 mm 2 m/s 542 mmHg 89%
    01:00 +10°C° 0.8 mm 2 m/s 542 mmHg 89%
    02:00 +10°C° 0.8 mm 2 m/s 542 mmHg 89%
    03:00 +11°C° 0.7 mm 1 m/s 542 mmHg 89%
    04:00 +11°C° 0.7 mm 1 m/s 542 mmHg 89%
    05:00 +11°C° 0.7 mm 1 m/s 541 mmHg 89%
    06:00 +11°C° 0.6 mm 1 m/s 542 mmHg 88%
    07:00 +11°C° 0.6 mm 1 m/s 542 mmHg 88%
    08:00 +11°C° 0.6 mm 1 m/s 543 mmHg 88%
    09:00 +11°C° 0.5 mm 1 m/s 543 mmHg 86%
    10:00 +12°C° 0.5 mm 1 m/s 544 mmHg 84%
    11:00 +12°C° 0.5 mm 1 m/s 544 mmHg 82%
    12:00 +13°C° 0.3 mm 2 m/s 544 mmHg 78%
    13:00 +14°C° 0.3 mm 2 m/s 544 mmHg 74%
    14:00 +15°C° 0.3 mm 2 m/s 544 mmHg 70%
    15:00 +15°C° 0.1 mm 2 m/s 543 mmHg 70%
    16:00 +15°C° 0.1 mm 2 m/s 543 mmHg 69%
    17:00 +15°C° 0.1 mm 2 m/s 543 mmHg 69%
    18:00 +14°C° 0.1 mm 2 m/s 543 mmHg 74%
    19:00 +13°C° 0.1 mm 2 m/s 543 mmHg 79%
    20:00 +12°C° 0.1 mm 2 m/s 543 mmHg 84%
    21:00 +12°C° 0.1 mm 2 m/s 543 mmHg 86%
    22:00 +12°C° 0.1 mm 1 m/s 543 mmHg 87%
    23:00 +12°C° 0.1 mm 1 m/s 543 mmHg 88%

    28 Mars, Jeudi

    Heure Température Précipitation Vent Pression Humidité
    00:00 +12°C° 0 mm 1 m/s 543 mmHg 89%
    01:00 +11°C° 0 mm 1 m/s 543 mmHg 89%
    02:00 +11°C° 0 mm 1 m/s 542 mmHg 90%
    03:00 +11°C° 0 mm 1 m/s 542 mmHg 90%
    04:00 +11°C° 0 mm 1 m/s 542 mmHg 91%
    05:00 +11°C° 0 mm 1 m/s 542 mmHg 92%
    06:00 +11°C° 0 mm 1 m/s 543 mmHg 89%
    07:00 +11°C° 0 mm 1 m/s 543 mmHg 86%
    08:00 +12°C° 0 mm 1 m/s 544 mmHg 84%
    09:00 +13°C° 0 mm 1 m/s 544 mmHg 77%
    10:00 +14°C° 0 mm 2 m/s 544 mmHg 71%
    11:00 +16°C° 0 mm 2 m/s 545 mmHg 64%
    12:00 +16°C° 0 mm 2 m/s 545 mmHg 61%
    13:00 +17°C° 0 mm 3 m/s 544 mmHg 58%
    14:00 +18°C° 0 mm 3 m/s 544 mmHg 54%
    15:00 +18°C° 0 mm 3 m/s 544 mmHg 54%
    16:00 +18°C° 0 mm 4 m/s 544 mmHg 53%
    17:00 +18°C° 0 mm 4 m/s 544 mmHg 53%
    18:00 +17°C° 0 mm 3 m/s 544 mmHg 58%
    19:00 +16°C° 0 mm 2 m/s 544 mmHg 62%
    20:00 +15°C° 0 mm 2 m/s 544 mmHg 67%
    21:00 +14°C° 0 mm 1 m/s 544 mmHg 70%
    22:00 +13°C° 0 mm 1 m/s 544 mmHg 74%
    23:00 +13°C° 0 mm 1 m/s 544 mmHg 78%
    Voir plus